SL-6 R/B(2), 20710

Orbit data source: Space-Track

SL-6 R/B(2), 20710 is space debris in HEO originally from a launch on Wed, 25 Jul 1990 UTC launched from the Plesetsk Missile And Space Complex (PKMTR). Debris objects in space refer to the collection of defunct objects orbiting the Earth. Examples of debris include non-operational satellites, rocket bodies, and fragments generated from explosions, collisions, or faulty payload assembly.

Loading next visibility...
Identifier
20710, 1990-064D
Orbit
HEO
Country
Flag of CISCIS
Related business
Manufacturer
NPO Energiya
Mission
Spacecraft
Bus & Motor
BLOK-L, Unknown motor
Mass
900 kg wet, 900 kg dry
Launch date (UTC)
1990-07-25 (35 years ago)
Launch vehicle
Unknown
Launch site
Plesetsk Missile And Space Complex (PKMTR)
Object type
Payload
Rocket body
Debris
Shape & HBR
Cyl, 1.6 m
Radar Cross Section
8.039 m², Large (>1 m²)

Expand to show TLE details & history
Last TLE update: 2 days ago

TLE from 2 days ago
0 SL-6 R/B(2)
1 20710U 90064D   25347.99088771  .00000338  00000-0  00000-0 0  9993
2 20710  69.2408 111.3211 6212641  17.1567 356.6548  2.04545213264285
Epoch: 2025-12-13T23:46Z
TLE epoch observation values (Epoch: 2025-12-13T23:46:52.698Z)
Latitude
0.00023°
Longitude
31.69129°
Altitude
3,715.55 km
Speed
7.986 km/s
True Right ascension
07h 25m 17s
True Declination
0° 00' 01"
Sunlit
Object was in full shadow at epoch
Visualization orbit readout
Latitude
Unknown
Longitude
Unknown
Altitude
Unknown
Speed
Unknown
Apparent Right ascension
Unknown
Apparent Declination
Unknown
Sunlit
N/A
Visualization observer readout
Local Sidereal Time
13:21:47
Azimuth
Unknown
Elevation
Unknown
Doppler factor
Unknown
Orbital elements
Apogee altitude
36,120.823 km
Perigee altitude
3,549.846 km
Semi-major axis
26,213.471 km
Eccentricity
0.62126
Inclination
69.2408°
RAAN
111.3211°
Arg. of periapsis
17.1567°
True anomaly
341.95691°
Mean anomaly
356.6548°
Eccentric anomaly
351.22369°
Mean motion
0.51139 °/min
Orbital period
703.96 mins
BSTAR
0
Loading maneuver chart data...
Computing Atmospheric mass density...
Loading historical data...
Loading historical data...
Loading historical data...
Loading historical data...
Loading historical data...
Loading historical data...
Loading historical data...

Documentation

Showing up to 5 results
|